Regional Weather Roundup
Issued by NWS

Home | Current Version | Previous Version | Graphics & Text | Print | Product List | Glossary Off
Versions: 1 2 3 4 5 6 7 8 9 10 11 12 13 14 15 16 17 18 19 20 21 22 23 24 25 26 27 28 29 30 31 32 33 34 35 36 37 38 39 40 41 42 43 44 45 46 47 48 49 50

000
ASUS43 KTOP 021959
RWRKS

WEATHER ROUNDUP FOR KANSAS
NATIONAL WEATHER SERVICE GOODLAND KS
300 PM CDT TUE SEP 02 2014

NOTE:  "FAIR" INDICATES FEW OR NO CLOUDS BELOW 12,000 FEET WITH NO
SIGNIFICANT WEATHER AND/OR OBSTRUCTIONS TO VISIBILITY.

KSZ001>006-013>018-027>032-041>047-022100-
NORTHWEST KANSAS

CITY           SKY/WX    TMP DP  RH WIND       PRES   REMARKS
GOODLAND       SUNNY     83  53  35 S13G25    30.04F
HAYS           MOSUNNY   82  68  61 S20       30.00F
HILL CITY      SUNNY     87  57  35 SE18      30.00F
RUSSELL        SUNNY     85  64  49 SE18      29.98F
$$

KSZ061>065-074>080-084>089-022100-
SOUTHWEST KANSAS

CITY           SKY/WX    TMP DP  RH WIND       PRES   REMARKS
DODGE CITY     CLOUDY    79  67  66 SE10      30.02F
ELKHART          N/A     83  61  47 E13         N/A
GARDEN CITY    PTSUNNY   76  64  66 SE10      30.03F
GREAT BEND     PTSUNNY   81  68  65 SE12      30.00F
LIBERAL        MOSUNNY   81  64  57 NE7       30.03F
$$

KSZ066>073-081>083-090>101-022100-
SOUTHEAST KANSAS

CITY           SKY/WX    TMP DP  RH WIND       PRES   REMARKS
CHANUTE        MOSUNNY   82  64  54 SW8       30.00F
COFFEYVILLE    PTSUNNY   78  68  71 S9        29.99F
HUTCHINSON     SUNNY     87  65  47 S18       29.98F
NEWTON         SUNNY     82  64  54 S9G18     30.03F
PARSONS        PTSUNNY   81  67  62 S7        30.00F
WICHITA INTL   MOSUNNY   86  65  49 S14       29.98F
WICHITA JABRA  SUNNY     84  65  52 S12       29.98F
WINFIELD       SUNNY     83  68  60 SE8       29.99F
$$

KSZ007>012-019>026-033>040-048>060-102>105-022100-
NORTHEAST KANSAS

CITY           SKY/WX    TMP DP  RH WIND       PRES   REMARKS
EMPORIA        MOSUNNY   82  70  66 S8        30.00F
LAWRENCE       MOSUNNY   79  68  69 S6        30.01F
MANHATTAN      SUNNY     85  64  49 VRB3      29.98F
OLATHE IND     PTSUNNY   79  70  74 S8        30.01F
OLATHE EXE     MOSUNNY   79  70  74 VRB6      30.00F
SALINA         MOSUNNY   85  69  58 SE16      29.99F
TOPEKA BILLARD PTSUNNY   82  70  66 S8        30.00F
TOPEKA FORBES  MOSUNNY   80  68  66 S6        30.01F
$$



USA.gov is the U.S. government's official web portal to all federal, state and local government web resources and services.